Location: Karcze
(52.0945°N, 22.4786°E)
Time: 12:52:15
(UTC+00:00)

Landsat 5 - Pass Details

Date: 14 July 2020
Orbit: 529 x 654 km, 98.2° (Epoch: 07 August)

Event Time Altitude Azimuth Distance (km) Brightness Sun altitude
Rises 01:32:30 0° 154° (SSE) 2,709 6.6 -6.8°
Reaches altitude 10° 01:34:39 10° 151° (SSE) 1,806 5.8 -6.6°
Maximum altitude 01:38:29 61° 72° (ENE) 611 3.9 -6.2°
Drops below altitude 10° 01:42:17 10° 351° (N) 1,791 6.5 -5.8°
Sets 01:44:24 0° 348° (NNW) 2,684 7.4 -5.6°
